Flag for Germany Weather past 2 weeks in Hürth, North Rhine-Westphalia, Germany

Now
61 °F

Passing clouds.


Feels Like: 61 °F
Forecast: 58 / 67 °F
Wind: 1 mph from South

Location: Noervenich

Current Time: Jul 7, 2015 at 3:14:16 AM

Latest Report: Jul 7, 2015 at 2:20 AM


Visibility: N/A

Pressure: 30.01 "Hg

Humidity: 77%

Dew point: 54 °F

Location of HürthLocation

Historic Weather in Hürth — Graph

°F

Hürth temperature yesterday

Maximum temperature yesterday: 77 °F (at 4:20 PM)
Minimum temperature yesterday: 57 °F (at 5:20 AM)
Average temperature yesterday: 68 °F

Past Weeks' High & Low Weather Summary

 TemperatureHumidityPressure
High99 °F (Jul 2, 4:20 PM)100% (Jun 22, 11:20 PM)30.24 "Hg (Jun 22, 11:20 PM)
Low48 °F (Jun 22, 11:20 PM)25% (Jun 30, 6:20 PM)29.68 "Hg (Jun 22, 8:20 PM)
Average69 °F65%30.08 "Hg
* Reported Jun 22 1:20 AM — Jul 7 1:20 AM, Hürth, Weather by CustomWeather, © 2015

Note: Actual official high and low records may vary slightly from our data, if they occured in-between our weather recording intervals... More about our weather records

Advertising

Hürth weather history for previous 24 hours

 ConditionsComfort  
Time TempWeatherWind HumidityBarometerVisibility
1:20 AM
Tue, Jul 7
59 °FPassing clouds.1 mph82%30.04 "HgN/A
12:20 AM63 °FPassing clouds.1 mph73%30.04 "HgN/A
11:20 PM
Mon, Jul 6
64 °FPassing clouds.No wind68%30.07 "HgN/A
10:20 PM68 °FPassing clouds.No wind64%30.07 "HgN/A
9:20 PM72 °FMild.2 mph57%30.07 "HgN/A
8:20 PM75 °FMild.2 mph44%30.07 "HgN/A
7:20 PM77 °FPleasantly warm.3 mph39%30.09 "HgN/A
6:20 PM77 °FPassing clouds.5 mph39%30.09 "HgN/A
5:20 PM77 °FPassing clouds.5 mph39%30.12 "HgN/A
4:20 PM77 °FPassing clouds.6 mph42%30.12 "HgN/A
3:20 PM75 °FPassing clouds.7 mph41%30.15 "HgN/A
2:20 PM75 °FPassing clouds.10 mph41%30.15 "HgN/A
1:20 PM72 °FPassing clouds.7 mph44%30.18 "HgN/A
12:20 PM72 °FPassing clouds.9 mph44%30.18 "HgN/A
11:20 AM70 °FPassing clouds.7 mph50%30.18 "HgN/A
10:20 AM66 °FPassing clouds.6 mph56%30.21 "HgN/A
9:20 AM64 °FPassing clouds.7 mph64%30.18 "HgN/A
8:20 AM63 °FPassing clouds.6 mph68%30.18 "HgN/A
7:20 AM61 °FPassing clouds.1 mph77%30.18 "HgN/A
6:20 AM57 °FPassing clouds.1 mph88%30.15 "HgN/A
5:20 AM57 °FPassing clouds.1 mph88%30.15 "HgN/A
4:20 AM59 °FPassing clouds.6 mph88%30.15 "HgN/A
3:20 AM63 °FPassing clouds.10 mph88%30.12 "HgN/A
Weather by CustomWeather, © 2015

See weather overviewHow to use our weather pages